Location: Newark
(49.8348°N, 24.0280°E)
Time: 04:46:36
(UTC+00:00)

Transit 2A - Pass Details

Date: 20 January 2020
Orbit: 600 x 959 km, 66.7° (Epoch: 16 February)

Event Time Altitude Azimuth Distance (km) Brightness Sun altitude
Rises 18:59:41 0° 189° (S) 2,908 - -38.4°
Reaches altitude 10° 19:02:08 10° 180° (S) 1,974 - -38.7°
Maximum altitude 19:06:04 33° 116° (ESE) 1,021 - -39.3°
Drops below altitude 10° 19:09:58 10° 52° (NE) 1,951 - -39.9°
Sets 19:12:22 0° 43° (NE) 2,868 - -40.3°
